[[{"header":{"parameterUnit":"m.s-1","parameterCategory":2,"la1":30.2991,"la2":30.254,"lo1":-89.0895,"lo2":-89.0444,"dy":0.0017,"dx":0.0017,"nx":28,"ny":28,"refTime":"2024-06-22T03:00:00:Z","depth":"0","parameterNumber":2,"parameterNumberName":"U-component_of_CURRENTS"},"data":[0,0,0,0,0,0,0,0,0,0,0,0,0,0,0,0,0,0,0,0,0,0,0,0,0,0,0,0,0,0,0,0,0,0,0,0,0,0,0,0,0,0,0,0,0,0,0,0,0,0,0,0,0,0,0,0,0,0,0.3623,0.3623,0,0.3635,0.3635,0.3634,0.3616,0.3615,0.3615,0.3615,0.3545,0.3543,0.3541,0,0,0,0,0,0,0,0,0,0,0,0,0,0.3559,0.356,0.3623,0.3623,0.3624,0.3635,0.3635,0.3634,0.3616,0.3615,0.3615,0.3615,0.3545,0.3543,0.3541,0,0,0,0,0,0,0,0,0,0,0,0,0,0.3575,0.356,0.3623,0.362,0.3621,0.3635,0.3635,0.3634,0.3616,0.3615,0.3615,0.3615,0.3546,0.3544,0.3541,0.3528,0,0,0.3533,0.3532,0,0,0,0,0,0,0,0,0.3574,0.3577,0.362,0.3621,0.3621,0.3629,0.3587,0.3597,0.3616,0.3611,0.3615,0.3615,0.3569,0.3565,0.356,0.3525,0.3522,0.3533,0.3531,0.353,0.3529,0,0,0,0,0,0,0,0.3573,0.3576,0.3622,0.3621,0.3622,0.3611,0.3612,0.3588,0.3585,0.3612,0.3612,0.3623,0.3568,0.3563,0.3558,0.3521,0.3533,0.353,0.3529,0.3528,0.352,0.3522,0,0,0,0,0,0,0.3585,0.3575,0.3621,0.3623,0.3603,0.3613,0.3614,0.3622,0.3587,0.3584,0.3623,0.3622,0.3567,0.3561,0.3556,0.3571,0.353,0.3527,0.3526,0.3519,0.3521,0.3522,0,0,0,0,0,0,0.3583,0.3589,0.3621,0.3604,0.3608,0.3615,0.3623,0.3622,0.3625,0.3598,0.3592,0.3628,0.3567,0.3559,0.3551,0.3566,0.3526,0.3524,0.3517,0.3519,0.3521,0.358,0,0,0,0,0,0,0.3581,0.3588,0.3593,0.3605,0.361,0.3638,0.3624,0.3623,0.3634,0.3633,0.36,0.3593,0.3566,0.3556,0.3549,0.3562,0.3522,0.3515,0.3518,0.3521,0.3576,0.3584,0.359,0,0,0,0,0,0.3579,0.3589,0.3593,0.3599,0.3617,0.3639,0.364,0.364,0.3635,0.364,0.3624,0.3594,0.3567,0.3555,0.3546,0.3559,0.3514,0.3517,0.352,0.3573,0.3582,0.359,0,0,0,0,0,0,0.3557,0.359,0.3593,0.361,0.3629,0.3638,0.3646,0.3647,0.3639,0.3636,0.3605,0.3597,0.3601,0.3575,0.3561,0.3568,0.3538,0.354,0.3581,0.3589,0.3596,0.3594,0.352,0,0,0,0,0,0.3558,0.3577,0.3603,0.3616,0.3629,0.3639,0.3647,0.365,0.3651,0.3647,0.3625,0.3608,0.3606,0.3594,0.3582,0.3576,0.3556,0.3583,0.359,0.3596,0.3591,0.3604,0.3611,0.3532,0.3532,0.3532,0,0,0.3552,0.3575,0.3583,0.3614,0.3626,0.3648,0.3642,0.3662,0.3672,0.3639,0.3636,0.3631,0.3613,0.3616,0.3614,0.3594,0.3605,0.36,0.3605,0.3596,0.3608,0.3615,0.3622,0.3534,0.3534,0.3534,0,0,0.3563,0.3574,0.3599,0.3617,0.365,0.3657,0.3668,0.3683,0.3681,0.3685,0.3675,0.368,0.3657,0.3655,0.365,0.3687,0.3648,0.3688,0.3709,0.3722,0.3728,0.3734,0.3704,0.3706,0.3683,0.3683,0.3683,0,0.3554,0.3584,0.3607,0.3638,0.3651,0.3665,0.3687,0.3694,0.37,0.371,0.3691,0.3705,0.3676,0.3705,0.371,0.3701,0.369,0.3677,0.3731,0.3736,0.374,0.3708,0.371,0.3686,0.3686,0.3686,0.3685,0,0.3584,0.3607,0.3623,0.3664,0.3684,0.3701,0.3724,0.3737,0.3736,0.3747,0.3775,0.3756,0.3765,0.3762,0.3735,0.3766,0.3741,0.3744,0.3707,0.3751,0.3715,0.3715,0.3691,0.369,0.3689,0.3688,0,0,0.3561,0.3629,0.3633,0.3651,0.3694,0.3709,0.3741,0.3774,0.3797,0.3808,0.383,0.3836,0.384,0.3836,0.3823,0.3819,0.382,0.3787,0.3786,0.3751,0.3823,0.3783,0.3779,0.384,0.3841,0.3842,0.3779,0,0.357,0.3626,0.3655,0.3689,0.3715,0.374,0.3764,0.38,0.3821,0.3842,0.3858,0.3872,0.3867,0.3865,0.3873,0.3832,0.3827,0.3834,0.3789,0.3786,0.3742,0.3781,0.3641,0.3572,0.3779,0.3779,0.3779,0,0.358,0.3618,0.3658,0.3703,0.3715,0.3734,0.3779,0.3807,0.3861,0.3881,0.3931,0.3931,0.394,0.3916,0.3906,0.3914,0.3871,0.3838,0.3836,0.3777,0.3749,0.3565,0.3565,0.3503,0.3779,0.3779,0.3779,0,0.3547,0.3609,0.3635,0.365,0.3711,0.3727,0.3757,0.382,0.3854,0.3907,0.3923,0.3969,0.3957,0.3953,0.3901,0.3898,0.3869,0.3857,0.3788,0.3782,0.3641,0.3623,0.3569,0.385,0.385,0.385,0.385,0,0.3535,0.3551,0.362,0.3632,0.3663,0.3711,0.3754,0.3799,0.3863,0.3885,0.3939,0.3958,0.3964,0.3951,0.3914,0.3858,0.3893,0.379,0.3774,0.3656,0.3641,0.3562,0.3519,0.3847,0.3848,0.3849,0.3849,0,0.3492,0.3536,0.3567,0.363,0.365,0.3672,0.3751,0.3768,0.3849,0.3872,0.388,0.3942,0.3927,0.3926,0.3888,0.3853,0.3694,0.3782,0.3624,0.3593,0.3461,0.3424,0.3183,0.309,0.3677,0.3675,0.3674,0,0.3477,0.3492,0.3558,0.3566,0.3589,0.364,0.3653,0.3751,0.3766,0.3853,0.383,0.386,0.3842,0.3813,0.3772,0.3713,0.3622,0.3542,0.3517,0.3436,0.3384,0.3247,0.3177,0.3334,0.3331,0.3328,0.3325,0,0.3443,0.3463,0.3491,0.3511,0.3519,0.3541,0.3568,0.3586,0.3659,0.3671,0.3674,0.3678,0.3692,0.3595,0.3569,0.3523,0.3369,0.3478,0.3435,0.3147,0.2948,0.2857,0.3376,0.3298,0.3301,0.3303,0.3304,0.3305,0.3406,0.3406,0.3429,0.342,0.3427,0.3383,0.3336,0.3354,0.3346,0.3295,0.3451,0.3394,0.3436,0.3393,0.3334,0.3196,0.3172,0.3083,0.3051,0.2925,0.2815,0.3268,0.3165,0.3167,0.3168,0.317,0.3171,0,0.3321,0.3315,0.3323,0.3271,0.3188,0.3247,0.3207,0.3111,0.2991,0.3061,0.3047,0.3067,0.3,0.3024,0.2946,0.2806,0.2661,0.271,0.2492,0.2453,0.2894,0.2866,0.2644,0.2644,0.2644,0.2644,0.2644,0.2644,0.3277,0.3222,0.32,0.3023,0.2974,0.2806,0.274,0.2636,0.2643,0.2553,0.2549,0.2625,0.2756,0.2727,0.2595,0.2517,0.2321,0.2159,0.2182,0.253,0.2563,0.2594,0.2562,0.2279,0.2279,0.1641,0.1636,0.1632]},{"header":{"parameterUnit":"m.s-1","parameterCategory":2,"la1":30.2991,"la2":30.254,"lo1":-89.0895,"lo2":-89.0444,"dy":0.0017,"dx":0.0017,"nx":28,"ny":28,"refTime":"2024-06-22T03:00:00:Z","depth":"0","parameterNumber":3,"parameterNumberName":"V-component_of_CURRENTS"},"data":[0,0,0,0,0,0,0,0,0,0,0,0,0,0,0,0,0,0,0,0,0,0,0,0,0,0,0,0,0,0,0,0,0,0,0,0,0,0,0,0,0,0,0,0,0,0,0,0,0,0,0,0,0,0,0,0,0,0,0.0148,0.0148,0,0.0121,0.012,0.012,0.01,0.01,0.01,0.01,0.0059,0.0058,0.0057,0,0,0,0,0,0,0,0,0,0,0,0,0,0.0159,0.0159,0.0148,0.0148,0.0148,0.0121,0.012,0.012,0.01,0.01,0.01,0.01,0.0059,0.0058,0.0056,0,0,0,0,0,0,0,0,0,0,0,0,0,0.0144,0.0159,0.0149,0.0135,0.0134,0.0121,0.012,0.012,0.01,0.01,0.01,0.01,0.0059,0.0058,0.0056,0.005,0,0,0.0052,0.0051,0,0,0,0,0,0,0,0,0.0145,0.0144,0.0138,0.0136,0.0135,0.0114,0.0109,0.0096,0.01,0.0112,0.01,0.0099,0.0077,0.0074,0.0068,0.0048,0.0046,0.0051,0.0051,0.005,0.0049,0,0,0,0,0,0,0,0.0146,0.0145,0.0137,0.0137,0.0136,0.0122,0.012,0.0106,0.0095,0.0111,0.011,0.0108,0.0075,0.0069,0.0067,0.0045,0.0052,0.005,0.0049,0.0049,0.0024,0.0024,0,0,0,0,0,0,0.0153,0.0146,0.0138,0.0136,0.014,0.0122,0.012,0.012,0.0095,0.0091,0.0108,0.0107,0.0072,0.0068,0.0065,0.0071,0.005,0.0049,0.0048,0.0024,0.0024,0.0024,0,0,0,0,0,0,0.0153,0.0152,0.0139,0.0141,0.0138,0.0122,0.0123,0.012,0.0117,0.0093,0.0089,0.0109,0.0072,0.0067,0.006,0.0069,0.0048,0.0046,0.0023,0.0024,0.0024,0.0073,0,0,0,0,0,0,0.0153,0.0153,0.0155,0.0141,0.0138,0.0139,0.0123,0.0119,0.0117,0.0115,0.0093,0.0088,0.0071,0.0062,0.0058,0.0066,0.0045,0.0023,0.0024,0.0024,0.0071,0.0075,0.0079,0,0,0,0,0,0.0154,0.0159,0.0156,0.0155,0.0143,0.014,0.0137,0.0125,0.0117,0.0121,0.0105,0.0089,0.0062,0.0061,0.0057,0.0064,0.0023,0.0023,0.0024,0.007,0.0074,0.0078,0,0,0,0,0,0,0.0163,0.0157,0.0153,0.0156,0.0153,0.0137,0.0138,0.0129,0.012,0.0118,0.0094,0.0089,0.0083,0.0067,0.0067,0.0058,0.0039,0.0039,0.0076,0.008,0.0084,0.01,0.0044,0,0,0,0,0,0.0168,0.0172,0.0164,0.0167,0.0167,0.0154,0.0151,0.0144,0.0133,0.0128,0.0112,0.0094,0.0081,0.0076,0.0059,0.0058,0.0044,0.0059,0.0062,0.0066,0.0076,0.0063,0.0067,0.0026,0.0026,0.0026,0,0,0.0172,0.017,0.0171,0.017,0.0165,0.0176,0.0152,0.0152,0.0161,0.0125,0.0129,0.0105,0.0082,0.0078,0.0075,0.0068,0.0069,0.0066,0.007,0.0078,0.0064,0.0068,0.0072,0.0026,0.0026,0.0026,0,0,0.0189,0.0182,0.0195,0.0196,0.0195,0.0191,0.0195,0.0183,0.0177,0.0176,0.0152,0.0136,0.0117,0.0103,0.0094,0.0108,0.0086,0.0101,0.0138,0.0126,0.0129,0.0132,0.0119,0.012,0.0107,0.0107,0.0107,0,0.0195,0.0211,0.0198,0.0213,0.022,0.0203,0.0223,0.0217,0.0204,0.0205,0.0184,0.0158,0.013,0.0134,0.0134,0.0117,0.0108,0.0125,0.0132,0.0134,0.0136,0.0122,0.0123,0.0109,0.0109,0.0109,0.0109,0,0.0227,0.0239,0.0247,0.0265,0.0269,0.0282,0.0276,0.0276,0.0264,0.0259,0.0253,0.0213,0.0204,0.0184,0.0161,0.0166,0.0153,0.0135,0.0124,0.0144,0.0126,0.0127,0.0113,0.0112,0.0111,0.0111,0,0,0.0252,0.0267,0.0273,0.0291,0.0298,0.031,0.0321,0.0333,0.0361,0.0325,0.035,0.0302,0.0284,0.0271,0.0238,0.0218,0.0211,0.0188,0.0186,0.018,0.0189,0.0189,0.0188,0.0198,0.0199,0.0199,0.017,0,0.0286,0.0328,0.0322,0.0366,0.0391,0.0377,0.0399,0.0404,0.0407,0.0426,0.0376,0.0382,0.0319,0.0317,0.0289,0.0239,0.0215,0.0221,0.0165,0.0163,0.0166,0.0189,0.0233,0.0213,0.017,0.017,0.017,0,0.0329,0.0353,0.0397,0.043,0.044,0.0461,0.0502,0.0523,0.0536,0.0536,0.0527,0.0493,0.0461,0.0401,0.0327,0.0337,0.0268,0.0216,0.0213,0.0199,0.0164,0.0185,0.0214,0.0126,0.017,0.017,0.017,0,0.0373,0.0409,0.0448,0.0458,0.049,0.0505,0.053,0.0558,0.0603,0.0614,0.0643,0.0594,0.0588,0.0492,0.0378,0.0356,0.0297,0.0253,0.0184,0.0183,0.0203,0.0203,0.0147,0.0194,0.0194,0.0194,0.0195,0,0.0421,0.0455,0.0472,0.0498,0.0564,0.0561,0.0642,0.0658,0.0708,0.0793,0.0711,0.0764,0.0611,0.0554,0.0426,0.0322,0.0334,0.0201,0.0181,0.022,0.0222,0.0131,0.0053,0.0193,0.0194,0.0194,0.0194,0,0.0468,0.0476,0.0528,0.0564,0.0588,0.0638,0.0726,0.0794,0.0817,0.0925,0.0929,0.0901,0.0835,0.0671,0.0533,0.0406,0.0234,0.0236,0.029,0.0277,0.0123,0.0046,-0.0043,-0.0083,0.0159,0.0158,0.0158,0,0.0493,0.0522,0.0586,0.0636,0.0656,0.0735,0.0805,0.0854,0.0942,0.1032,0.1096,0.1049,0.1063,0.0847,0.0613,0.0394,0.026,0.0265,0.022,0.0133,0.0032,-0.0019,-0.005,0.026,0.0261,0.0261,0.0262,0,0.0545,0.0562,0.061,0.0718,0.0793,0.0894,0.0996,0.1083,0.1167,0.1254,0.1371,0.1382,0.1187,0.1014,0.0693,0.0521,0.0214,0.0271,0.0173,0.0104,0.0055,0.0002,0.0252,0.0268,0.0267,0.0267,0.0266,0.0266,0.0585,0.0634,0.0705,0.0811,0.0911,0.105,0.1148,0.1269,0.1427,0.1573,0.1588,0.1649,0.1373,0.096,0.0705,0.0291,0.0259,0.0171,0.0084,0.0041,0.0006,0.0268,0.0264,0.0264,0.0263,0.0263,0.0262,0,0.0643,0.0706,0.0801,0.0928,0.1049,0.1091,0.1278,0.1385,0.158,0.1729,0.183,0.1782,0.1427,0.1019,0.0457,0.0168,0.0054,0.0009,-0.005,-0.0076,0.0163,0.0173,0.0162,0.0162,0.0162,0.0162,0.0162,0.0162,0.0676,0.0777,0.0829,0.1029,0.1122,0.1288,0.1401,0.1566,0.1714,0.1911,0.1994,0.2027,0.1776,0.0797,0.0155,-0.002,-0.0215,-0.025,-0.036,-0.0197,-0.0188,-0.0179,-0.0185,-0.0271,-0.0272,-0.0525,-0.0528,-0.053]}],[{"header":{"parameterUnit":"m.s-1","parameterCategory":2,"la1":30.2991,"la2":30.254,"lo1":-89.0895,"lo2":-89.0444,"dy":0.0017,"dx":0.0017,"nx":28,"ny":28,"refTime":"2024-06-22T03:00:00:Z","depth":"2","parameterNumber":2,"parameterNumberName":"U-component_of_CURRENTS"},"data":[0,0,0,0,0,0,0,0,0,0,0,0,0,0,0,0,0,0,0,0,0,0,0,0,0,0,0,0,0,0,0,0,0,0,0,0,0,0,0,0,0,0,0,0,0,0,0,0,0,0,0,0,0,0,0,0,0,0,0.2702,0.2702,0,0.2711,0.2711,0.2711,0.2715,0.2716,0.2716,0.2716,0.2726,0.2726,0.2726,0,0,0,0,0,0,0,0,0,0,0,0,0,0.2705,0.2705,0.2702,0.2702,0.2702,0.2711,0.2711,0.2711,0.2715,0.2716,0.2716,0.2716,0.2726,0.2726,0.2726,0,0,0,0,0,0,0,0,0,0,0,0,0,0.2706,0.2705,0.2702,0.2707,0.2708,0.2711,0.2711,0.2711,0.2715,0.2716,0.2716,0.2716,0.2726,0.2726,0.2726,0.2722,0,0,0.2727,0.2727,0,0,0,0,0,0,0,0,0.2706,0.2706,0.2706,0.2707,0.2708,0.2714,0.2716,0.2716,0.2715,0.271,0.2716,0.2716,0.2723,0.2724,0.2722,0.2723,0.2723,0.2727,0.2727,0.2727,0.2727,0,0,0,0,0,0,0,0.2706,0.2706,0.2704,0.2706,0.2707,0.2716,0.2715,0.2716,0.2714,0.2711,0.2712,0.2716,0.2724,0.2722,0.2722,0.2723,0.2727,0.2727,0.2727,0.2727,0.2785,0.2787,0,0,0,0,0,0,0.2708,0.2705,0.2703,0.2704,0.271,0.2715,0.2715,0.271,0.2714,0.2715,0.2716,0.2716,0.2722,0.2722,0.2723,0.2771,0.2727,0.2727,0.2727,0.2784,0.2785,0.2787,0,0,0,0,0,0,0.2708,0.2707,0.2703,0.2707,0.2708,0.2715,0.2709,0.271,0.2726,0.2718,0.2719,0.2732,0.2722,0.2723,0.2742,0.277,0.2727,0.2728,0.2782,0.2784,0.2786,0.2834,0,0,0,0,0,0,0.2707,0.2707,0.271,0.2707,0.2707,0.2716,0.2709,0.271,0.2728,0.2729,0.2732,0.2732,0.2722,0.2742,0.2742,0.2769,0.2728,0.278,0.2783,0.2786,0.283,0.2837,0.2843,0,0,0,0,0,0.2707,0.2706,0.271,0.271,0.2709,0.2717,0.2718,0.2723,0.2729,0.2737,0.2744,0.2733,0.2759,0.2743,0.2743,0.2771,0.2779,0.2782,0.2785,0.2828,0.2836,0.2843,0,0,0,0,0,0,0.2707,0.2707,0.271,0.2709,0.272,0.2719,0.2728,0.2734,0.2746,0.2752,0.2745,0.2746,0.2779,0.2768,0.275,0.2797,0.277,0.2773,0.2802,0.281,0.2816,0.2816,0.2728,0,0,0,0,0,0.2709,0.271,0.2715,0.2716,0.2723,0.2731,0.2738,0.2745,0.2752,0.2758,0.2762,0.2772,0.2789,0.2794,0.2804,0.2821,0.2821,0.2842,0.2849,0.2854,0.2856,0.2894,0.2904,0.2798,0.2798,0.2798,0,0,0.2708,0.2711,0.271,0.2718,0.2725,0.2738,0.2735,0.2752,0.2768,0.2757,0.2783,0.2797,0.2801,0.2828,0.2841,0.2822,0.2883,0.2858,0.2863,0.2861,0.2899,0.2909,0.2918,0.28,0.2799,0.2799,0,0,0.2711,0.2712,0.2718,0.2729,0.2749,0.2754,0.2765,0.2778,0.279,0.2816,0.2821,0.2851,0.2866,0.2876,0.2883,0.293,0.2922,0.2941,0.2965,0.3003,0.3012,0.302,0.3023,0.3031,0.2937,0.2937,0.2937,0,0.2716,0.2713,0.2723,0.2737,0.2745,0.2764,0.2777,0.2794,0.2814,0.2836,0.2832,0.289,0.2889,0.2932,0.2946,0.2945,0.2956,0.2933,0.3011,0.3019,0.3026,0.3028,0.3036,0.2939,0.2939,0.2939,0.2939,0,0.272,0.2725,0.2731,0.2751,0.2769,0.2778,0.2805,0.2833,0.2855,0.2878,0.2935,0.2944,0.298,0.2988,0.2976,0.3034,0.3022,0.302,0.2989,0.304,0.3038,0.3046,0.2943,0.2942,0.2941,0.2941,0,0,0.2703,0.2727,0.273,0.2738,0.2772,0.2783,0.2826,0.2865,0.2904,0.2941,0.2988,0.3024,0.3049,0.3058,0.3063,0.3084,0.3133,0.3073,0.3073,0.3071,0.3202,0.3133,0.3134,0.3154,0.3156,0.3157,0.3177,0,0.2699,0.2716,0.2733,0.2753,0.2761,0.2798,0.2835,0.2885,0.2932,0.2986,0.3026,0.3074,0.3071,0.3095,0.3124,0.3138,0.3158,0.3127,0.3157,0.3157,0.3087,0.3142,0.2881,0.2872,0.3184,0.3185,0.3186,0,0.2689,0.2702,0.2717,0.2749,0.2758,0.2784,0.2851,0.2891,0.2983,0.3025,0.3099,0.3131,0.3185,0.3167,0.3228,0.3214,0.3214,0.3213,0.3214,0.3137,0.3103,0.2875,0.2874,0.3198,0.3197,0.3196,0.3195,0,0.2656,0.2684,0.2692,0.2702,0.2752,0.2779,0.2819,0.2911,0.2964,0.3062,0.3111,0.3188,0.323,0.3259,0.3272,0.3259,0.3323,0.3303,0.3238,0.3231,0.3007,0.2978,0.3343,0.3343,0.3342,0.3342,0.3342,0,0.2628,0.2633,0.268,0.2682,0.2714,0.2766,0.2828,0.2887,0.2991,0.3052,0.3135,0.3192,0.3259,0.3303,0.3299,0.3297,0.3354,0.325,0.3242,0.3015,0.2988,0.3269,0.326,0.3343,0.3343,0.3343,0.3343,0,0.2583,0.2609,0.262,0.2673,0.2696,0.2727,0.2829,0.2871,0.2983,0.3065,0.3097,0.3219,0.3275,0.3318,0.3361,0.3326,0.3325,0.3305,0.302,0.2979,0.3194,0.3188,0.323,0.3228,0.3226,0.3224,0.3223,0,0.2557,0.2559,0.2609,0.2621,0.2645,0.2706,0.2742,0.2858,0.2907,0.3067,0.3086,0.3196,0.3231,0.3283,0.3244,0.3223,0.3301,0.2965,0.2892,0.32,0.3188,0.3185,0.3181,0.2603,0.2597,0.2592,0.2588,0,0.2511,0.2532,0.2545,0.2572,0.2601,0.2635,0.2698,0.2735,0.2859,0.2923,0.3001,0.305,0.3118,0.299,0.299,0.2945,0.2948,0.2862,0.3267,0.2683,0.2614,0.2602,0.2617,0.2543,0.2547,0.2551,0.2553,0.2555,0.2479,0.2475,0.2493,0.2502,0.2535,0.2535,0.2522,0.2581,0.2628,0.2675,0.2817,0.2794,0.282,0.269,0.2595,0.252,0.2725,0.2581,0.2594,0.2613,0.2549,0.2482,0.2371,0.2374,0.2377,0.238,0.2382,0,0.2416,0.2414,0.2419,0.2408,0.2381,0.2441,0.2455,0.2408,0.2383,0.2463,0.2498,0.2303,0.2214,0.2244,0.2053,0.2039,0.2,0.1955,0.1873,0.192,0.1962,0.1861,0.1502,0.1499,0.1497,0.1494,0,0,0.2386,0.2348,0.2331,0.2249,0.2243,0.2168,0.2145,0.2099,0.2111,0.205,0.2016,0.2159,0.2205,0.1845,0.178,0.1608,0.1757,0.1545,0.2255,0.2209,0.2248,0.233,0.2231,0,0,0,0,0]},{"header":{"parameterUnit":"m.s-1","parameterCategory":2,"la1":30.2991,"la2":30.254,"lo1":-89.0895,"lo2":-89.0444,"dy":0.0017,"dx":0.0017,"nx":28,"ny":28,"refTime":"2024-06-22T03:00:00:Z","depth":"2","parameterNumber":3,"parameterNumberName":"V-component_of_CURRENTS"},"data":[0,0,0,0,0,0,0,0,0,0,0,0,0,0,0,0,0,0,0,0,0,0,0,0,0,0,0,0,0,0,0,0,0,0,0,0,0,0,0,0,0,0,0,0,0,0,0,0,0,0,0,0,0,0,0,0,0,0,0.0282,0.0282,0,0.0258,0.0258,0.0258,0.0233,0.0233,0.0233,0.0233,0.0189,0.0189,0.0188,0,0,0,0,0,0,0,0,0,0,0,0,0,0.0269,0.0269,0.0282,0.0282,0.0282,0.0258,0.0258,0.0258,0.0233,0.0233,0.0233,0.0232,0.019,0.0189,0.0188,0,0,0,0,0,0,0,0,0,0,0,0,0,0.0262,0.027,0.0282,0.0267,0.0266,0.0258,0.0258,0.0257,0.0233,0.0233,0.0233,0.0232,0.019,0.0189,0.0187,0.0187,0,0,0.0183,0.0183,0,0,0,0,0,0,0,0,0.0263,0.0263,0.027,0.0268,0.0267,0.0249,0.0237,0.0233,0.0234,0.0245,0.0233,0.0232,0.0208,0.0205,0.0201,0.0185,0.0183,0.0183,0.0182,0.0182,0.0181,0,0,0,0,0,0,0,0.0263,0.0263,0.0272,0.027,0.0268,0.0249,0.0248,0.0236,0.0228,0.0244,0.0242,0.0241,0.0207,0.0202,0.02,0.0183,0.0183,0.0182,0.0181,0.0181,0.0165,0.0165,0,0,0,0,0,0,0.027,0.0264,0.0273,0.0271,0.0264,0.025,0.0248,0.0254,0.0229,0.0225,0.0241,0.024,0.0205,0.0201,0.0198,0.0209,0.0182,0.0181,0.018,0.0165,0.0165,0.0166,0,0,0,0,0,0,0.027,0.0272,0.0274,0.0267,0.0266,0.0251,0.0257,0.0254,0.0251,0.0227,0.0222,0.0242,0.0205,0.02,0.0194,0.0206,0.018,0.0179,0.0164,0.0165,0.0165,0.0222,0,0,0,0,0,0,0.027,0.0272,0.0279,0.0268,0.0267,0.0278,0.0258,0.0254,0.0251,0.0249,0.0226,0.0221,0.0204,0.0196,0.0193,0.0204,0.0178,0.0164,0.0164,0.0165,0.022,0.0224,0.0228,0,0,0,0,0,0.027,0.0284,0.0279,0.028,0.0277,0.0279,0.0277,0.0263,0.0252,0.0257,0.024,0.0222,0.0198,0.0196,0.0191,0.0203,0.0163,0.0164,0.0165,0.0217,0.0223,0.0228,0,0,0,0,0,0,0.0281,0.0283,0.0277,0.0291,0.0288,0.0275,0.0279,0.0267,0.0258,0.0255,0.0229,0.0224,0.0221,0.0204,0.0202,0.0199,0.0177,0.0177,0.0218,0.0224,0.0228,0.0242,0.0177,0,0,0,0,0,0.0287,0.03,0.0294,0.0306,0.0307,0.0293,0.0291,0.0283,0.0272,0.0267,0.025,0.0232,0.0222,0.0217,0.0202,0.0204,0.018,0.0207,0.0212,0.0216,0.0223,0.0197,0.02,0.0168,0.0168,0.0168,0,0,0.0293,0.0297,0.0303,0.0309,0.0305,0.0319,0.0291,0.0295,0.0304,0.0265,0.0269,0.0246,0.0225,0.0226,0.0223,0.0214,0.0211,0.0217,0.0221,0.0226,0.0198,0.0201,0.0204,0.0169,0.0169,0.0169,0,0,0.0318,0.0318,0.0338,0.0341,0.0342,0.0338,0.0342,0.0331,0.0324,0.0323,0.0299,0.0285,0.0267,0.0256,0.0248,0.0269,0.0234,0.0262,0.0299,0.0274,0.0276,0.0278,0.025,0.0249,0.0267,0.0267,0.0267,0,0.0324,0.0352,0.0342,0.0363,0.0373,0.0352,0.0375,0.0368,0.0355,0.0356,0.0332,0.0308,0.0283,0.0292,0.0295,0.028,0.0258,0.0282,0.028,0.0281,0.0282,0.0253,0.0251,0.027,0.0269,0.0269,0.0269,0,0.0365,0.0386,0.0399,0.0423,0.043,0.0447,0.044,0.044,0.0425,0.0416,0.041,0.0372,0.036,0.0347,0.0326,0.0327,0.0306,0.0287,0.0269,0.0289,0.0256,0.0254,0.0274,0.0273,0.0272,0.0271,0,0,0.0389,0.0422,0.0428,0.0453,0.0464,0.0479,0.0493,0.0506,0.0528,0.0492,0.0506,0.0472,0.0446,0.0434,0.0402,0.0376,0.0355,0.0338,0.0335,0.0315,0.0296,0.0283,0.0278,0.0335,0.0335,0.0335,0.027,0,0.0427,0.0483,0.0485,0.0539,0.057,0.0558,0.058,0.0584,0.0579,0.0586,0.0536,0.0537,0.0482,0.0477,0.0442,0.038,0.035,0.0374,0.0276,0.0273,0.0262,0.0275,0.0286,0.023,0.0267,0.0266,0.0266,0,0.0471,0.0506,0.0563,0.0611,0.0623,0.0646,0.0685,0.0704,0.0703,0.0695,0.0676,0.0636,0.0597,0.0541,0.0445,0.0463,0.0386,0.0328,0.0324,0.0292,0.0255,0.0215,0.0223,0.026,0.0261,0.0261,0.0261,0,0.0508,0.0563,0.0614,0.063,0.0675,0.0694,0.0719,0.0737,0.0771,0.0766,0.0779,0.0721,0.0697,0.0594,0.0468,0.0456,0.0354,0.0322,0.0237,0.0235,0.0216,0.0212,0.025,0.025,0.0251,0.0251,0.0251,0,0.0556,0.0598,0.0637,0.0667,0.074,0.0745,0.0818,0.0831,0.0858,0.0915,0.0841,0.0857,0.0708,0.0628,0.0499,0.0366,0.0377,0.0248,0.0221,0.0235,0.0234,0.0237,0.0237,0.0248,0.0249,0.0249,0.025,0,0.0594,0.0616,0.0683,0.0736,0.076,0.0813,0.0891,0.0944,0.0955,0.1021,0.1019,0.0961,0.0862,0.0704,0.0542,0.042,0.0283,0.023,0.0256,0.0233,0.017,0.0173,0.0129,0.0128,0.0127,0.0126,0.0126,0,0.062,0.0656,0.0738,0.0785,0.0812,0.089,0.095,0.0993,0.1055,0.1092,0.1125,0.1046,0.1012,0.0765,0.054,0.0321,0.0286,0.0177,0.0153,0.0181,0.0159,0.0163,0.0167,0.0144,0.0143,0.0143,0.0143,0,0.067,0.0693,0.075,0.0848,0.0917,0.1013,0.1096,0.1158,0.1216,0.1261,0.1299,0.1269,0.1047,0.0831,0.053,0.0373,0.0211,0.0164,0.0188,0.0179,0.0192,0.0171,0.0175,0.014,0.0141,0.0141,0.0141,0.0141,0.0705,0.0752,0.0821,0.0916,0.1004,0.1113,0.119,0.1278,0.1379,0.1442,0.1421,0.1375,0.1136,0.075,0.0489,0.0201,0.0215,0.01,0.0102,0.0104,0.0124,0.0135,0.0076,0.0076,0.0076,0.0076,0.0076,0,0.075,0.08,0.0884,0.0992,0.1085,0.1131,0.1273,0.1344,0.1457,0.1514,0.1538,0.13,0.1065,0.078,0.0367,0.0127,0.0102,0.0034,0.006,0.0064,0.0068,0.0086,0.0028,0.0027,0.0026,0.0025,0,0,0.0772,0.0849,0.0888,0.1034,0.1111,0.1239,0.1319,0.1425,0.1498,0.1542,0.1515,0.1474,0.1147,0.0839,0.0511,0.0271,0.0219,0.0213,0.0277,0.035,0.0357,0.0128,0.0165,0,0,0,0,0]}],[{"header":{"parameterUnit":"m.s-1","parameterCategory":2,"la1":30.2991,"la2":30.254,"lo1":-89.0895,"lo2":-89.0444,"dy":0.0017,"dx":0.0017,"nx":28,"ny":28,"refTime":"2024-06-22T03:00:00:Z","depth":"4","parameterNumber":2,"parameterNumberName":"U-component_of_CURRENTS"},"data":[0,0,0,0,0,0,0,0,0,0,0,0,0,0,0,0,0,0,0,0,0,0,0,0,0,0,0,0,0,0,0,0,0,0,0,0,0,0,0,0,0,0,0,0,0,0,0,0,0,0,0,0,0,0,0,0,0,0,0.1597,0.1597,0,0.1638,0.1638,0.1638,0.1687,0.1688,0.1688,0.1689,0.1778,0.1779,0.1781,0,0,0,0,0,0,0,0,0,0,0,0,0,0.1584,0.1584,0.1597,0.1597,0.1598,0.1638,0.1638,0.1638,0.1687,0.1688,0.1689,0.169,0.1777,0.1779,0.1781,0,0,0,0,0,0,0,0,0,0,0,0,0,0.1603,0.1584,0.1597,0.1627,0.1631,0.1637,0.1638,0.1639,0.1686,0.1688,0.1689,0.169,0.1777,0.1779,0.1781,0.1771,0,0,0.1789,0.179,0,0,0,0,0,0,0,0,0.1602,0.1603,0.1622,0.1625,0.1629,0.1659,0.1666,0.1686,0.1686,0.1664,0.1689,0.1691,0.1742,0.1748,0.175,0.1775,0.1779,0.1789,0.179,0.1791,0.1792,0,0,0,0,0,0,0,0.16,0.1602,0.1612,0.1623,0.1627,0.1648,0.1651,0.167,0.1696,0.1666,0.167,0.1676,0.1745,0.1748,0.1753,0.178,0.1789,0.1791,0.1792,0.1793,0.1912,0.1914,0,0,0,0,0,0,0.1594,0.16,0.1611,0.1613,0.1619,0.1647,0.1651,0.1647,0.1695,0.1703,0.1675,0.1678,0.1743,0.175,0.1756,0.1847,0.1791,0.1794,0.1795,0.1911,0.1913,0.1915,0,0,0,0,0,0,0.1594,0.1594,0.1609,0.1609,0.1613,0.1645,0.1641,0.1648,0.1689,0.1701,0.171,0.1715,0.1745,0.1753,0.1805,0.1847,0.1795,0.1797,0.1909,0.1911,0.1914,0.1964,0,0,0,0,0,0,0.1593,0.1594,0.1609,0.1608,0.1612,0.1636,0.1641,0.1648,0.1689,0.1695,0.1737,0.1745,0.1746,0.1801,0.1807,0.185,0.1799,0.1906,0.191,0.1913,0.196,0.1968,0.1975,0,0,0,0,0,0.1592,0.1598,0.161,0.1612,0.1626,0.1637,0.1641,0.1668,0.169,0.171,0.1743,0.1745,0.1827,0.1804,0.1811,0.1855,0.1905,0.1909,0.1913,0.1957,0.1967,0.1975,0,0,0,0,0,0,0.1602,0.1603,0.1616,0.1624,0.1643,0.1646,0.1671,0.1689,0.1729,0.1749,0.1762,0.1771,0.1835,0.1836,0.1812,0.19,0.1869,0.1874,0.19,0.191,0.1917,0.1918,0.1801,0,0,0,0,0,0.161,0.1618,0.1624,0.1637,0.1648,0.1669,0.1686,0.1705,0.1729,0.175,0.1781,0.1816,0.1849,0.1873,0.19,0.1942,0.195,0.1977,0.1985,0.1991,0.1997,0.2051,0.2064,0.1927,0.1927,0.1927,0,0,0.1618,0.1622,0.1629,0.1642,0.166,0.1679,0.1683,0.1718,0.1746,0.1753,0.1818,0.1847,0.1867,0.1919,0.1948,0.193,0.2033,0.1996,0.2001,0.2004,0.2057,0.207,0.2081,0.193,0.193,0.1929,0,0,0.1628,0.1644,0.1654,0.1671,0.1704,0.1713,0.1731,0.176,0.1792,0.1845,0.1863,0.1916,0.1966,0.1986,0.2001,0.2064,0.2072,0.2085,0.2122,0.2174,0.2186,0.2196,0.2215,0.2226,0.2085,0.2086,0.2086,0,0.1648,0.1647,0.1663,0.1679,0.1698,0.1732,0.1751,0.1783,0.1832,0.1867,0.1879,0.1978,0.1995,0.2054,0.2077,0.2081,0.2105,0.2084,0.2184,0.2194,0.2204,0.222,0.2232,0.2088,0.2088,0.2088,0.2088,0,0.165,0.167,0.168,0.1708,0.1735,0.1757,0.1795,0.1846,0.1894,0.1928,0.2019,0.2047,0.2107,0.2123,0.2119,0.2201,0.2194,0.2188,0.2159,0.222,0.2234,0.2246,0.2093,0.2092,0.2091,0.209,0,0,0.1638,0.1673,0.1682,0.17,0.1751,0.1768,0.1832,0.1888,0.1945,0.2013,0.2086,0.2147,0.2187,0.2205,0.222,0.2261,0.234,0.226,0.2261,0.2273,0.2449,0.2271,0.2266,0.2364,0.2367,0.2369,0.2427,0,0.1638,0.1662,0.1685,0.1726,0.174,0.1798,0.185,0.192,0.199,0.2073,0.2134,0.2212,0.2211,0.2256,0.23,0.2339,0.2377,0.2324,0.2391,0.2393,0.2223,0.2275,0.2377,0.2435,0.2438,0.244,0.2441,0,0.1624,0.1643,0.1675,0.173,0.1746,0.1789,0.1887,0.1942,0.2064,0.2125,0.2222,0.2277,0.2364,0.2349,0.2451,0.2427,0.2446,0.2462,0.2464,0.2288,0.2236,0.2364,0.2462,0.246,0.2459,0.2458,0.2456,0,0.1585,0.1633,0.1658,0.1677,0.175,0.1798,0.1856,0.1972,0.204,0.2176,0.2249,0.2352,0.2427,0.248,0.2522,0.2508,0.2615,0.2593,0.2446,0.2433,0.2554,0.2542,0.2661,0.266,0.266,0.266,0.266,0,0.1547,0.1573,0.1651,0.1663,0.1721,0.179,0.1881,0.1957,0.2088,0.2171,0.2285,0.2357,0.2472,0.2544,0.2558,0.2533,0.2651,0.2457,0.2441,0.2571,0.2562,0.2561,0.2549,0.2662,0.2662,0.2661,0.2661,0,0.1491,0.1538,0.1575,0.1663,0.1702,0.1752,0.189,0.1951,0.2089,0.2203,0.2255,0.2404,0.2483,0.2556,0.2639,0.2562,0.256,0.2521,0.265,0.2641,0.2332,0.2322,0.2354,0.2348,0.2344,0.234,0.2336,0,0.1454,0.1469,0.157,0.1605,0.1651,0.1743,0.1803,0.1941,0.2007,0.2205,0.224,0.2382,0.2456,0.2426,0.251,0.251,0.2481,0.2452,0.2387,0.2321,0.2304,0.2302,0.2298,0.2329,0.2327,0.2326,0.2325,0,0.139,0.1445,0.148,0.1553,0.1619,0.168,0.1778,0.1813,0.1968,0.2112,0.2169,0.2206,0.2284,0.2321,0.2338,0.2336,0.2453,0.2401,0.241,0.2349,0.2291,0.2278,0.228,0.2308,0.231,0.2312,0.2313,0,0.1357,0.1368,0.1431,0.148,0.156,0.1588,0.165,0.1711,0.1789,0.1989,0.2003,0.2138,0.2266,0.2232,0.2252,0.2229,0.2188,0.2098,0.2122,0.2141,0.2042,0.1935,0.1834,0,0,0,0,0,0.1313,0.1312,0.1351,0.1393,0.1466,0.1513,0.1616,0.168,0.1825,0.1809,0.1899,0.1953,0.1981,0.2051,0.1984,0.2157,0.22,0.2067,0.211,0.2215,0.2235,0.2135,0,0,0,0,0,0,0.1282,0.1318,0.1315,0.131,0.1326,0.139,0.145,0.1546,0.154,0.1693,0.1719,0.1828,0.1887,0.2004,0.1949,0.1966,0.1946,0.2149,0.2143,0.2204,0.2222,0.2237,0.2142,0,0,0,0,0]},{"header":{"parameterUnit":"m.s-1","parameterCategory":2,"la1":30.2991,"la2":30.254,"lo1":-89.0895,"lo2":-89.0444,"dy":0.0017,"dx":0.0017,"nx":28,"ny":28,"refTime":"2024-06-22T03:00:00:Z","depth":"4","parameterNumber":3,"parameterNumberName":"V-component_of_CURRENTS"},"data":[0,0,0,0,0,0,0,0,0,0,0,0,0,0,0,0,0,0,0,0,0,0,0,0,0,0,0,0,0,0,0,0,0,0,0,0,0,0,0,0,0,0,0,0,0,0,0,0,0,0,0,0,0,0,0,0,0,0,0.0281,0.0281,0,0.0271,0.0271,0.0271,0.026,0.026,0.026,0.026,0.0237,0.0237,0.0236,0,0,0,0,0,0,0,0,0,0,0,0,0,0.0259,0.026,0.0281,0.0281,0.0281,0.0271,0.0271,0.0271,0.026,0.026,0.026,0.026,0.0237,0.0237,0.0236,0,0,0,0,0,0,0,0,0,0,0,0,0,0.0261,0.026,0.0281,0.0274,0.0274,0.0271,0.0271,0.0271,0.026,0.026,0.026,0.026,0.0237,0.0237,0.0236,0.0235,0,0,0.0234,0.0233,0,0,0,0,0,0,0,0,0.0261,0.0262,0.0275,0.0275,0.0274,0.0267,0.0255,0.0258,0.026,0.0265,0.026,0.026,0.0246,0.0245,0.0243,0.0234,0.0233,0.0234,0.0233,0.0233,0.0233,0,0,0,0,0,0,0,0.0261,0.0262,0.0277,0.0275,0.0274,0.0262,0.0262,0.0256,0.0256,0.0265,0.0264,0.0263,0.0246,0.0244,0.0242,0.0233,0.0234,0.0233,0.0233,0.0232,0.0233,0.0233,0,0,0,0,0,0,0.0265,0.0262,0.0277,0.0276,0.0267,0.0262,0.0262,0.0269,0.0257,0.0255,0.0264,0.0263,0.0245,0.0243,0.0242,0.0262,0.0233,0.0232,0.0232,0.0232,0.0233,0.0233,0,0,0,0,0,0,0.0264,0.0266,0.0277,0.0269,0.0269,0.0263,0.027,0.0269,0.0272,0.0256,0.0254,0.0269,0.0245,0.0243,0.0244,0.026,0.0232,0.0231,0.0232,0.0232,0.0233,0.0288,0,0,0,0,0,0,0.0264,0.0267,0.0276,0.0269,0.027,0.0285,0.0271,0.0269,0.0272,0.0271,0.026,0.0257,0.0245,0.0246,0.0244,0.0258,0.0231,0.0231,0.0232,0.0233,0.0286,0.029,0.0294,0,0,0,0,0,0.0263,0.0279,0.0276,0.0278,0.0282,0.0286,0.0285,0.0279,0.0273,0.028,0.0271,0.0258,0.0249,0.0246,0.0243,0.0258,0.0231,0.0232,0.0233,0.0284,0.0289,0.0294,0,0,0,0,0,0,0.0274,0.0279,0.0276,0.0292,0.0292,0.0284,0.0292,0.0284,0.0283,0.0283,0.0265,0.0262,0.0268,0.0254,0.0251,0.0259,0.0237,0.0238,0.0276,0.0282,0.0286,0.0295,0.023,0,0,0,0,0,0.0281,0.0295,0.0292,0.0306,0.0308,0.03,0.0302,0.0297,0.0293,0.0293,0.0284,0.0274,0.027,0.0269,0.0261,0.0268,0.0242,0.0275,0.0279,0.0283,0.0288,0.0259,0.0262,0.0236,0.0236,0.0236,0,0,0.0288,0.0293,0.03,0.0309,0.0309,0.0323,0.0301,0.0309,0.032,0.029,0.0305,0.029,0.0274,0.0282,0.0284,0.0274,0.0276,0.0284,0.0288,0.0291,0.0261,0.0263,0.0265,0.0237,0.0237,0.0237,0,0,0.031,0.0315,0.0334,0.0339,0.0344,0.0343,0.0347,0.0344,0.0343,0.035,0.0333,0.0327,0.0321,0.0314,0.031,0.0333,0.0299,0.0331,0.0364,0.0337,0.0339,0.034,0.0308,0.0306,0.0335,0.0335,0.0335,0,0.0318,0.0344,0.0339,0.0358,0.0369,0.0355,0.0378,0.0377,0.0373,0.0379,0.0362,0.0353,0.0337,0.0348,0.0355,0.0344,0.032,0.0347,0.0343,0.0344,0.0344,0.0311,0.0308,0.0338,0.0338,0.0337,0.0337,0,0.0353,0.0375,0.0388,0.0411,0.042,0.0438,0.0437,0.0444,0.0438,0.0435,0.044,0.0413,0.0408,0.0401,0.0386,0.0388,0.0367,0.0351,0.0331,0.035,0.0313,0.0309,0.0342,0.0341,0.034,0.0339,0,0,0.0369,0.0406,0.0411,0.0436,0.0451,0.0466,0.0485,0.0503,0.0523,0.0505,0.0521,0.0504,0.0484,0.0477,0.0453,0.0428,0.0406,0.0396,0.0393,0.0367,0.0341,0.0313,0.0306,0.0389,0.0388,0.0388,0.0314,0,0.0399,0.0449,0.0458,0.0509,0.0536,0.0535,0.056,0.0571,0.0571,0.0582,0.0548,0.0554,0.0516,0.0514,0.0484,0.0428,0.0398,0.0427,0.0324,0.0321,0.0296,0.0301,0.0387,0.0311,0.031,0.0309,0.0308,0,0.0431,0.0464,0.0518,0.0569,0.0581,0.0609,0.0649,0.067,0.0676,0.0673,0.0662,0.0632,0.0602,0.0559,0.0471,0.0492,0.0423,0.0371,0.0366,0.0319,0.0286,0.0286,0.03,0.0301,0.0302,0.0302,0.0303,0,0.045,0.0508,0.0556,0.0573,0.0624,0.065,0.0679,0.0701,0.0729,0.0731,0.074,0.0696,0.0673,0.0586,0.0475,0.0473,0.0365,0.0346,0.0255,0.0252,0.0275,0.0274,0.0279,0.0279,0.0279,0.0279,0.0279,0,0.048,0.0522,0.0574,0.0602,0.0672,0.0689,0.0757,0.0774,0.08,0.0837,0.0792,0.0791,0.0677,0.0599,0.0493,0.0362,0.0375,0.0261,0.0233,0.0299,0.0302,0.0272,0.0272,0.0276,0.0277,0.0277,0.0278,0,0.0495,0.0526,0.0591,0.0656,0.0684,0.0735,0.0814,0.0856,0.0874,0.0913,0.0914,0.0861,0.076,0.0634,0.0487,0.0389,0.0264,0.0212,0.0293,0.0271,0.0164,0.0168,0.0106,0.0104,0.0103,0.0102,0.0101,0,0.0507,0.0541,0.0632,0.0676,0.0712,0.079,0.0844,0.0892,0.0932,0.0951,0.0964,0.0887,0.083,0.0606,0.047,0.0264,0.023,0.0159,0.016,0.0169,0.0147,0.0153,0.0159,0.0099,0.0099,0.0098,0.0098,0,0.0531,0.0564,0.0618,0.0708,0.0777,0.086,0.0935,0.0965,0.1011,0.1029,0.0995,0.0884,0.0767,0.0598,0.0439,0.0292,0.0203,0.0144,0.0146,0.0147,0.0159,0.0141,0.0148,0.0093,0.0094,0.0094,0.0095,0,0.0549,0.0586,0.0654,0.0734,0.0822,0.0896,0.0941,0.098,0.1021,0.1029,0.1015,0.0895,0.0832,0.0611,0.0466,0.0318,0.0275,0.0214,0.0211,0.0214,0.0264,0.0297,0.0251,0,0,0,0,0,0.0563,0.0599,0.0671,0.0754,0.0841,0.0894,0.0985,0.1019,0.1056,0.1033,0.1025,0.0914,0.0699,0.0616,0.0461,0.0432,0.0245,0.0244,0.0173,0.0068,0.0073,0.011,0,0,0,0,0,0,0.0568,0.0633,0.0664,0.0756,0.081,0.0907,0.0967,0.0996,0.0985,0.0997,0.0891,0.085,0.0651,0.078,0.0448,0.0407,0.0334,0.0154,0.015,0.0065,0.007,0.0074,0.0114,0,0,0,0,0]}]]